Change the Weather History Date:

Tuesday, October 30, 2012

  Actual Average Record
Temperature  
Mean Temperature 57 °F 38 °F  
Max Temperature 62 °F 49 °F 68 °F (1989)
Min Temperature 51 °F 28 °F 15 °F (1978)
Degree Days  
Heating Degree Days 8 27  
Month to date heating degree days 559 680  
Since 1 July heating degree days 1073 1265  
Cooling Degree Days 0 0  
Month to date cooling degree days 0 0  
Year to date cooling degree days 155 114  
Growing Degree Days 7 (Base 50)    
Moisture  
Dew Point 50 °F    
Average Humidity 76    
Maximum Humidity 100    
Minimum Humidity 51    
Precipitation  
Precipitation 0.27 in 0.13 in 0.50 in (1961)
Month to date precipitation 4.52 3.94  
Year to date precipitation 30.14 31.77  
Sea Level Pressure  
Sea Level Pressure 29.38 in    
Wind  
Wind Speed 10 mph (East)    
Max Wind Speed 25 mph    
Max Gust Speed 37 mph    
Visibility 8 miles    
Events Rain    
T = Trace of Precipitation, MM = Missing Value Source: NWS Daily Summary

Daily Weather History Graph

Daily Weather History Graph

Search for Another Location

Airport or City:

Trip Planner

Search our weather history database for the weather conditions in past years. The results will help you decide how hot, cold, wet, or windy it might be!

Date:

Astronomy

Oct. 30, 2012 Rise Set
Actual Time 7:31 AM EDT 5:48 PM EDT
Civil Twilight 7:01 AM EDT 6:18 PM EDT
Nautical Twilight 6:27 AM EDT 6:52 PM EDT
Astronomical Twilight 5:53 AM EDT 7:26 PM EDT
Moon 6:12 PM EDT 8:19 AM EDT
Length of Visible Light 11h 16m
Length of Day
10h 16m
Full, 99% of the Moon is Illuminated
Oct 30
Full
Nov 6
Last Quarter
Nov 13
New
Nov 20
First Quarter
Nov 28
Full

Hourly Weather History & Observations

Time (EDT) Temp. Dew Point Humidity Pressure Visibility Wind Dir Wind Speed Gust Speed Precip Events Conditions
12:12 AM 53.6 °F 51.8 °F 94% 29.27 in 4.0 mi ENE 20.7 mph 31.1 mph 0.01 in Rain Light Rain
12:51 AM 54.0 °F 53.1 °F 97% 29.27 in 2.5 mi ENE 23.0 mph 34.5 mph 0.03 in Rain Light Rain
12:58 AM 55.4 °F 53.6 °F 94% 29.27 in 4.0 mi ENE 23.0 mph 33.4 mph 0.00 in Rain Light Rain
1:51 AM 55.0 °F 53.1 °F 93% 29.27 in 3.0 mi ENE 20.7 mph 27.6 mph 0.02 in Rain Light Rain
3:41 AM 55.4 °F 53.6 °F 94% 29.29 in 7.0 mi ENE 12.7 mph - 0.02 in Rain Light Rain
3:51 AM 55.0 °F 54.0 °F 96% 29.30 in 10.0 mi East 12.7 mph 25.3 mph 0.02 in   Overcast
4:51 AM 55.0 °F 53.1 °F 93% 29.32 in 10.0 mi ENE 9.2 mph - 0.01 in   Overcast
5:00 AM 55.4 °F 53.6 °F 94% 29.32 in 6.0 mi NE 6.9 mph - N/A   Overcast
5:15 AM 55.4 °F 53.6 °F 94% 29.32 in 7.0 mi Calm Calm - 0.01 in Rain Light Rain
5:51 AM 55.0 °F 53.1 °F 93% 29.32 in 10.0 mi ENE 8.1 mph - 0.01 in   Overcast
5:58 AM 53.6 °F 53.6 °F 100% 29.33 in 10.0 mi ENE 8.1 mph - N/A   Overcast
6:51 AM 55.0 °F 52.0 °F 89% 29.34 in 4.0 mi East 8.1 mph 16.1 mph 0.02 in Rain Light Rain
7:16 AM 53.6 °F 51.8 °F 94% 29.38 in 1.8 mi South 15.0 mph 24.2 mph 0.09 in Rain Heavy Rain
7:25 AM 53.6 °F 51.8 °F 94% 29.36 in 3.0 mi ESE 5.8 mph 17.3 mph 0.11 in Rain Light Rain
7:51 AM 54.0 °F 48.9 °F 83% 29.39 in 10.0 mi ESE 9.2 mph 17.3 mph 0.11 in   Scattered Clouds
9:16 AM 53.6 °F 48.2 °F 82% 29.44 in 1.8 mi ESE 10.4 mph 17.3 mph 0.04 in Rain Heavy Rain
9:29 AM 53.6 °F 51.8 °F 94% 29.40 in 3.0 mi ENE 10.4 mph 23.0 mph 0.07 in Rain Light Rain
9:51 AM 55.0 °F 51.1 °F 86% 29.43 in 10.0 mi East 8.1 mph - 0.07 in   Scattered Clouds
11:51 AM 59.0 °F 46.0 °F 62% 29.43 in 10.0 mi SE 18.4 mph 31.1 mph N/A   Scattered Clouds
12:51 PM 59.0 °F 46.0 °F 62% 29.42 in 10.0 mi ESE 11.5 mph 19.6 mph N/A   Mostly Cloudy
1:51 PM 60.1 °F 45.0 °F 57% 29.43 in 10.0 mi SE 15.0 mph 27.6 mph N/A   Mostly Cloudy
3:51 PM 61.0 °F 44.1 °F 54% 29.43 in 10.0 mi SE 10.4 mph 20.7 mph N/A   Mostly Cloudy
4:51 PM 61.0 °F 43.0 °F 52% 29.44 in 10.0 mi East 8.1 mph 17.3 mph N/A   Mostly Cloudy
5:51 PM 59.0 °F 43.0 °F 55% 29.45 in 10.0 mi ESE 5.8 mph - N/A   Mostly Cloudy
6:51 PM 57.9 °F 44.1 °F 60% 29.47 in 10.0 mi ESE 6.9 mph - N/A   Partly Cloudy
7:51 PM 57.9 °F 46.0 °F 65% 29.47 in 10.0 mi East 5.8 mph - N/A   Overcast
8:51 PM 55.9 °F 48.0 °F 75% 29.48 in 10.0 mi East 5.8 mph - N/A   Overcast
9:51 PM 54.0 °F 48.9 °F 83% 29.48 in 10.0 mi NE 3.5 mph - N/A   Overcast
11:51 PM 52.0 °F 50.0 °F 93% 29.45 in 10.0 mi ENE 5.8 mph - 0.01 in Rain Light Rain